Location: Lucerne Valley
(34.4439°N, 116.9669°E)
Time: 18:34:59
(UTC-07:00)

Vanguard 2 Rocket - Visible Passes

Search period start: 19 October 2017 00:00
Search period end: 29 October 2017 00:00
Orbit: 555 x 3327 km, 32.9° (Epoch: 18 October)

Date Brightness Start Highest point End Pass type
(mag) Time Alt. Az. Time Alt. Az. Time Alt. Az.
19 Oct 10.1 03:39:21 10° W 03:51:54 42° SSW 04:09:29 10° SSE visible
19 Oct 11.0 05:59:24 10° WSW 06:08:41 16° SW 06:18:53 10° S visible
20 Oct 9.8 02:39:27 10° W 02:50:46 50° SSW 03:08:22 10° SE visible
20 Oct 10.7 04:56:15 10° W 05:07:30 23° SW 05:21:07 10° S visible
21 Oct 10.5 03:54:57 10° W 04:06:21 30° SSW 04:21:40 10° SSE visible
22 Oct 10.2 02:54:39 10° W 03:05:19 37° SSW 03:21:12 10° SSE visible
22 Oct 11.1 05:14:52 10° WSW 05:22:00 14° SW 05:29:59 10° SSW visible
23 Oct 10.9 04:11:37 10° WSW 04:20:53 20° SW 04:32:31 10° S visible
24 Oct 10.6 03:10:28 10° W 03:19:56 26° SSW 03:33:07 10° SSE visible
25 Oct 11.2 04:32:08 10° SW 04:35:37 11° SW 04:39:23 10° SSW visible
26 Oct 11.0 03:27:42 10° WSW 03:34:40 16° SSW 03:43:21 10° S visible
27 Oct 10.7 02:26:28 10° WSW 02:33:58 21° SSW 02:44:19 10° SSE visible
